Temperature
9 9 10 10 10 10 10 10 10 10 10 10 10 10 10 10 10 10 10 10 10 9 9 9 9 9 10 10 10 10 9 9 9 9 9 9 9 9 9 9 9 9 8
8 8 9 9 10 10 10 10 10 10 10 10 10 10 10 10 9 9 9 9 9 9 9 9 9 9 9 9 9 9 9 9 9 9 9 9 8 8 8 8 8 8 8
7 8 9 9 9 9 9 9 9 10 10 10 9 9 9 9 9 9 9 9 9 9 9 9 9 9 9 9 9 9 9 9 9 8 8 8 8 8 8 8 8 8 8
7 7 8 8 9 9 9 9 9 9 9 9 9 9 9 9 9 9 8 8 8 8 8 8 8 8 8 8 8 8 8 8 8 8 8 8 8 7 7 7 7 7 7
7 7 7 8 8 8 8 8 8 9 8 8 8 8 9 9 9 8 8 8 8 8 8 8 8 8 8 8 8 8 8 8 8 8 7 7 7 7 7 6 7 7 7
6 6 7 7 8 8 8 8 8 8 8 8 8 8 8 8 8 8 8 7 7 7 7 7 7 7 7 7 7 7 7 7 7 7 7 7 6 6 6 6 6 6 6
5 6 6 6 7 7 7 7 7 7 7 7 7 7 7 7 8 8 7 7 7 7 7 7 7 7 7 7 7 7 7 7 7 7 7 6 6 6 6 5 5 5 5
5 5 5 6 6 6 6 7 7 7 7 7 7 7 7 7 7 7 7 7 6 6 6 6 6 6 6 6 6 6 6 6 6 6 6 6 6 6 5 5 5 4 5
4 5 5 5 6 6 6 6 6 6 6 6 6 6 6 6 6 6 6 6 6 6 6 6 6 6 6 6 6 6 6 6 6 6 6 6 5 5 5 5 4 4 4
4 4 5 5 5 5 5 6 6 6 6 6 6 5 5 6 6 6 6 6 6 6 6 6 5 5 5 5 5 5 6 5 5 5 5 5 5 5 5 4 4 4 3
3 4 4 4 4 5 5 5 5 5 5 5 5 5 5 5 5 5 5 5 5 5 5 5 5 5 5 5 5 5 5 5 5 5 5 5 5 4 4 4 4 3 3
3 3 4 4 4 4 4 4 5 5 5 5 5 5 5 4 5 5 5 5 5 5 5 5 5 5 5 4 4 4 4 4 4 4 4 4 4 4 4 3 3 3 3
3 3 3 3 3 3 4 4 4 4 4 4 4 4 4 4 4 4 4 4 4 4 4 4 4 4 4 4 4 4 4 4 4 4 4 4 4 3 3 3 3 3 3
2 2 3 3 3 3 3 3 3 3 4 4 4 4 4 4 4 4 4 4 4 4 4 4 4 4 3 3 3 3 3 3 3 3 3 3 3 3 3 3 2 2 2
2 2 2 2 2 3 3 3 3 3 3 3 3 3 3 3 3 3 3 3 3 3 3 3 3 3 3 3 3 3 3 3 3 3 3 3 3 2 2 2 2 2 2
2 2 2 2 2 2 2 2 3 3 3 3 3 3 3 3 3 3 3 3 3 2 2 2 2 2 2 2 2 2 2 2 2 2 2 2 2 2 2 2 2 2 2
2 2 2 2 2 2 2 2 2 2 2 2 2 2 2 2 2 2 2 2 2 2 2 2 2 2 2 2 2 2 1 1 1 2 2 2 2 1 1 1 1 1 1
1 1 2 2 2 1 1 1 2 2 2 2 2 2 2 2 2 2 2 2 2 2 2 2 1 1 1 1 1 1 1 1 1 1 1 1 1 1 1 1 1 1 1
1 1 1 1 1 1 1 1 1 1 1 1 1 2 2 2 2 2 2 2 2 1 1 1 1 1 1 1 1 1 1 1 1 1 1 1 1 1 1 0 1 1 0
1 1 1 1 1 1 1 1 1 1 1 1 1 1 1 1 1 1 1 1 1 1 1 1 1 0 1 0 0 0 0 0 0 0 0 0 0 0 0 0 0 0 0
1 1 1 1 1 1 0 0 0 0 1 1 1 1 1 1 1 1 1 1 1 1 0 0 0 0 0 0 0 0 -0 -0 -0 0 0 0 -0 -0 -0 -0 -0 -0 -0
0 0 0 0 0 0 0 0 0 0 0 0 0 0 0 0 0 0 0 0 0 0 -0 -0 0 -0 -0 -0 -0 -0 -0 -0 -1 -0 -0 -0 -0 -1 -1 -1 -1 -1 -1
-0 -0 -0 -0 -0 -0 -0 -1 -0 -0 -0 -0 -0 -0 -0 -0 -0 -0 -0 -0 -0 -1 -1 -1 -0 -0 -0 -1 -1 -1 -1 -1 -1 -1 -1 -1 -1 -1 -1 -1 -1 -1 -1
-1 -1 -1 -1 -1 -1 -1 -1 -1 -1 -1 -1 -1 -1 -1 -1 -1 -1 -1 -1 -1 -1 -1 -1 -1 -1 -1 -1 -1 -1 -1 -1 -1 -1 -1 -1 -1 -2 -2 -2 -2 -2 -2
-1 -1 -2 -1 -1 -1 -1 -1 -1 -1 -1 -1 -1 -1 -1 -1 -1 -1 -1 -1 -1 -1 -1 -2 -2 -2 -1 -1 -1 -2 -2 -2 -2 -2 -2 -2 -2 -2 -2 -2 -2 -2 -2
-2 -2 -2 -2 -2 -2 -2 -2 -2 -2 -2 -2 -2 -2 -2 -2 -2 -2 -2 -2 -2 -2 -2 -2 -2 -2 -2 -2 -2 -2 -2 -2 -2 -2 -2 -2 -2 -3 -3 -3 -2 -3 -2
Wind_Speed
6 4 3 3 3 3 3 4 4 3 4 4 4 4 4 3 3 3 5 6 6 6 6 4 4 3 3 3 3 3 2 1 1 2 1 2 2 2 2 2 2 3 4
4 4 2 1 2 3 3 3 4 4 5 4 4 3 3 3 3 3 3 5 6 6 5 5 4 4 3 3 3 3 2 1 1 2 2 1 2 2 1 1 1 2 2
5 4 3 2 1 2 3 3 4 4 4 4 4 3 3 2 1 2 3 3 5 6 6 6 5 4 4 4 4 4 4 2 1 1 3 2 2 1 1 1 0 1 1
5 4 2 2 2 3 2 3 4 4 4 5 5 6 5 4 3 3 3 3 4 5 5 5 5 4 4 4 4 3 3 4 2 1 0 1 2 2 1 2 1 1 1
4 4 3 2 2 1 1 2 3 3 4 4 6 6 4 3 3 3 3 3 2 3 4 5 4 4 4 4 4 3 3 3 3 3 2 1 1 1 2 2 2 2 2
3 3 2 2 2 2 1 1 3 3 3 4 5 5 5 5 5 4 4 3 2 1 2 3 3 4 3 4 4 4 4 3 3 3 3 3 3 2 2 2 2 2 2
1 2 3 3 2 2 1 1 3 3 3 4 4 4 5 6 6 5 5 4 3 2 3 2 2 2 3 3 3 4 3 3 4 4 3 3 3 2 2 2 1 1 2
1 2 2 2 2 2 1 0 2 3 3 3 3 3 4 4 3 4 4 4 4 3 3 3 3 3 3 3 3 3 3 3 3 4 3 3 3 2 3 3 2 1 1
1 2 2 2 2 2 2 0 1 2 2 3 3 3 3 3 3 3 3 3 3 3 3 3 3 2 3 3 3 3 3 3 3 3 3 3 2 2 2 2 3 3 2
1 2 3 3 2 2 2 1 2 2 2 2 2 2 3 3 3 2 3 3 3 3 3 3 3 3 3 3 3 2 3 3 3 3 3 3 2 2 2 2 2 2 3
2 2 3 2 2 3 2 2 2 2 2 2 2 2 2 2 2 2 3 3 3 3 4 4 3 3 3 3 3 3 3 3 3 3 4 4 3 3 3 2 2 2 2
2 2 2 2 2 2 2 2 1 2 1 1 2 2 2 2 2 2 2 2 3 3 4 4 4 4 4 4 4 4 4 4 4 4 4 5 4 4 3 3 3 2 2
3 2 2 2 2 1 1 2 1 1 1 1 2 2 2 2 2 2 2 2 2 2 3 3 4 4 4 4 4 4 4 5 5 5 5 5 5 4 3 4 3 3 2
2 2 2 2 1 1 1 1 1 0 1 1 2 2 2 2 2 2 2 2 2 2 2 3 3 4 4 4 4 5 5 5 5 5 5 5 6 6 5 4 4 3 2
3 3 2 2 1 1 1 1 1 0 0 0 0 1 1 1 1 1 1 1 1 2 2 2 2 3 3 4 4 5 4 4 4 4 4 4 5 5 5 4 4 4 3
4 4 3 2 2 2 2 1 1 1 0 0 1 1 1 1 1 1 1 1 1 1 1 2 2 3 3 4 5 4 4 4 4 4 3 3 4 4 5 5 5 4 4
4 4 4 4 4 3 3 3 2 1 0 1 1 1 1 1 2 2 2 2 2 2 2 2 2 3 4 5 5 5 4 4 4 4 3 3 3 3 3 4 5 5 6
5 5 4 4 3 3 2 2 2 1 1 2 2 2 1 2 2 2 3 3 2 3 3 3 3 3 3 4 5 5 4 3 4 4 4 4 4 4 4 3 4 4 4
5 5 4 4 3 3 2 2 2 2 2 2 3 3 2 3 3 3 4 3 3 3 3 3 3 3 4 5 5 4 3 3 3 3 4 4 4 5 4 3 4 3 3
4 3 3 2 2 3 2 2 2 2 3 4 4 3 3 3 4 4 4 3 3 3 3 3 3 4 4 4 5 4 3 3 3 3 4 5 5 5 5 4 4 4 4
3 2 2 2 3 3 2 3 3 4 4 4 3 3 3 3 4 4 3 3 3 2 2 3 3 3 4 4 5 5 3 4 3 3 3 4 6 6 6 5 4 5 4
3 2 2 2 2 2 3 3 4 4 3 3 3 3 3 3 3 3 3 3 3 3 2 2 2 2 3 4 5 6 5 4 4 4 3 4 6 6 5 4 4 4 2
2 2 2 2 2 2 2 4 4 3 2 2 3 3 3 2 3 3 3 3 3 3 2 2 3 2 2 3 5 5 5 4 3 4 5 4 5 4 4 4 4 3 2
2 2 1 2 3 3 2 3 3 3 2 3 3 3 2 2 2 2 3 3 4 3 3 3 3 3 2 2 3 3 3 3 3 2 3 4 3 3 3 3 3 2 3
3 2 2 3 3 3 3 3 2 2 3 3 3 2 2 2 2 2 3 4 4 5 4 4 4 4 4 5 5 3 3 3 3 2 1 1 1 2 2 2 2 2 2
3 2 2 2 3 3 3 3 2 2 3 3 3 2 2 2 2 2 2 3 4 5 5 5 4 4 5 5 5 5 5 4 4 2 2 2 3 3 3 2 2 2 2
Wind_Direction
273 268 246 230 207 201 192 192 183 188 174 171 169 168 179 181 180 175 172 167 166 169 165 163 158 156 162 166 156 139 127 114 121 97 47 31 47 56 67 59 58 46 41
305 304 291 237 210 206 200 197 191 188 187 185 179 168 158 171 178 166 170 172 165 167 172 170 169 168 161 156 162 148 152 141 122 128 111 14 350 7 35 36 60 41 30
274 286 291 275 253 231 211 203 202 188 184 168 153 131 108 97 122 169 182 183 173 170 171 173 167 168 169 176 180 172 165 171 182 152 151 151 216 275 329 336 20 18 10
273 275 286 293 275 248 220 196 192 183 175 162 160 164 169 175 188 185 179 168 169 168 170 169 167 169 173 178 187 184 173 163 179 188 141 152 156 166 276 313 310 315 301
273 274 278 266 279 275 206 191 171 167 165 165 168 170 169 168 153 146 143 152 147 147 159 165 165 169 175 180 179 176 173 178 180 182 168 140 128 159 177 242 287 307 277
297 297 312 353 358 5 44 154 158 163 162 165 167 171 166 158 151 153 156 162 158 146 139 158 166 170 171 182 182 177 172 182 182 188 185 171 170 182 184 203 234 270 280
316 332 353 7 3 3 5 152 158 167 167 166 171 174 169 166 167 169 170 168 169 183 188 164 170 178 176 174 169 173 176 179 184 195 200 191 192 174 174 179 212 258 291
350 349 347 354 349 352 352 22 172 166 166 170 174 170 164 165 171 175 175 177 183 188 180 172 177 178 166 169 170 177 184 178 187 195 196 195 197 185 179 172 172 245 288
344 349 1 6 3 0 344 282 156 151 161 164 158 158 162 162 169 178 171 172 176 175 169 168 172 174 166 170 168 175 179 174 190 196 201 203 204 192 186 174 177 186 237
345 356 360 357 357 352 0 28 97 142 150 151 158 161 161 159 158 163 168 169 172 166 163 168 172 173 170 174 175 178 180 178 198 203 200 206 208 197 190 183 185 196 204
317 340 344 347 355 11 23 35 65 79 111 140 148 146 152 149 154 176 183 176 170 166 171 182 183 183 183 181 182 194 188 193 207 210 206 212 206 204 199 187 190 201 199
321 329 337 354 13 19 18 25 56 72 76 144 140 153 156 152 165 182 186 181 182 180 184 187 192 195 193 189 192 202 200 204 214 216 209 218 208 205 203 198 202 209 209
324 333 343 345 350 356 1 10 25 45 45 106 133 151 159 170 187 196 189 187 186 189 187 189 198 203 199 195 202 205 209 213 219 213 211 216 203 211 212 207 207 212 220
282 295 312 314 320 318 321 345 355 39 60 74 131 164 185 192 196 194 187 188 183 190 203 203 206 206 205 205 208 211 212 218 219 218 217 214 207 211 209 211 211 207 216
282 276 275 275 292 304 314 318 311 305 120 65 112 215 212 192 179 177 180 177 182 201 208 202 204 204 205 204 199 200 198 206 216 220 224 224 218 223 219 219 208 199 209
267 272 271 262 264 261 266 270 264 266 236 244 275 250 198 191 192 190 175 169 193 216 205 208 205 209 221 215 207 199 196 202 209 221 229 231 227 234 238 243 230 213 210
261 261 254 244 246 245 237 233 230 229 238 264 268 256 212 207 218 208 191 196 200 200 212 223 218 225 229 216 212 206 198 200 212 217 221 233 236 228 225 242 240 237 238
261 257 251 249 248 251 247 229 208 212 233 258 266 257 238 226 223 214 210 218 208 206 213 219 220 225 237 224 218 210 197 204 217 218 218 221 225 222 219 221 228 236 242
256 250 244 245 241 240 237 219 217 217 232 249 256 250 236 230 226 224 223 219 209 216 215 204 207 218 240 232 223 211 201 217 229 229 225 223 222 234 231 218 226 245 262
260 249 246 246 240 246 221 211 225 222 239 248 251 247 233 226 229 229 224 214 203 212 210 215 214 220 236 242 228 212 200 216 229 234 234 233 230 233 230 214 216 236 252
266 251 237 236 244 243 208 216 228 238 249 253 250 246 234 233 230 221 214 203 199 199 205 216 226 224 236 247 237 223 207 212 220 229 235 233 236 236 233 225 221 235 239
282 262 238 259 266 243 206 228 243 249 248 249 251 252 247 241 225 208 207 197 189 192 206 219 237 233 233 246 242 235 234 222 217 229 233 235 236 237 236 232 236 241 235
270 268 243 267 283 271 220 232 252 248 241 240 249 254 254 230 215 203 200 195 192 199 216 218 231 244 237 238 241 237 239 235 233 233 236 238 233 227 229 234 233 226 205
279 276 246 259 280 286 265 243 244 233 225 236 248 247 241 227 213 213 204 200 201 205 217 223 231 239 240 232 220 222 234 240 246 243 233 229 220 223 231 231 229 222 210
288 270 246 255 269 279 280 274 249 214 219 230 240 247 239 224 221 226 221 217 219 210 215 222 220 219 235 241 236 229 225 220 229 233 205 189 204 221 227 231 227 222 217
282 278 270 263 271 275 280 283 261 220 212 228 234 236 235 228 224 226 264 267 246 241 238 236 232 240 247 246 238 242 241 235 220 214 205 214 219 223 223 229 236 234 233
Height
1468 1469 1470 1471 1472 1473 1474 1476 1477 1480 1482 1484 1486 1488 1491 1493 1496 1498 1500 1502 1504 1506 1507 1509 1510 1512 1513 1514 1515 1516 1517 1518 1519 1520 1521 1522 1522 1523 1524 1524 1525 1525 1526
1465 1465 1466 1467 1468 1469 1471 1472 1474 1476 1478 1480 1482 1485 1487 1490 1492 1494 1496 1498 1500 1502 1504 1506 1507 1508 1510 1511 1512 1514 1515 1515 1517 1518 1518 1519 1521 1520 1521 1522 1522 1523 1523
1463 1462 1463 1464 1465 1466 1467 1468 1470 1472 1474 1476 1479 1481 1484 1486 1489 1491 1493 1494 1497 1499 1501 1502 1503 1505 1507 1508 1509 1511 1512 1513 1514 1515 1516 1517 1517 1518 1519 1519 1520 1520 1521
1460 1460 1460 1461 1462 1463 1464 1466 1467 1469 1471 1473 1475 1477 1479 1481 1484 1487 1489 1491 1493 1495 1497 1499 1500 1502 1503 1505 1507 1508 1509 1510 1511 1513 1513 1515 1515 1516 1515 1516 1517 1518 1518
1458 1458 1458 1459 1460 1461 1462 1463 1465 1466 1468 1470 1472 1474 1476 1478 1481 1483 1485 1487 1489 1491 1493 1495 1496 1498 1499 1501 1503 1505 1506 1507 1508 1510 1510 1511 1512 1513 1513 1512 1513 1514 1515
1455 1455 1456 1457 1458 1459 1460 1461 1462 1464 1466 1468 1469 1471 1473 1475 1477 1479 1482 1484 1486 1487 1489 1491 1493 1495 1496 1498 1500 1502 1503 1504 1505 1507 1507 1508 1509 1509 1510 1509 1509 1510 1511
1453 1454 1454 1455 1456 1457 1458 1459 1461 1462 1464 1465 1467 1468 1470 1472 1474 1476 1478 1480 1482 1484 1486 1488 1489 1491 1493 1495 1497 1498 1500 1501 1502 1503 1504 1505 1505 1507 1507 1507 1507 1507 1507
1453 1453 1454 1454 1455 1456 1457 1458 1459 1460 1462 1463 1465 1466 1468 1469 1471 1473 1475 1477 1479 1481 1483 1485 1486 1488 1490 1491 1493 1495 1496 1498 1499 1500 1501 1501 1502 1503 1503 1504 1504 1504 1503
1452 1452 1453 1453 1454 1455 1455 1456 1457 1458 1460 1461 1463 1464 1465 1467 1469 1470 1473 1475 1476 1478 1480 1482 1483 1485 1486 1488 1490 1491 1493 1494 1495 1497 1498 1498 1499 1499 1500 1500 1501 1502 1500
1451 1451 1452 1452 1453 1454 1454 1455 1455 1457 1458 1459 1461 1462 1464 1465 1467 1468 1470 1472 1473 1475 1476 1478 1480 1482 1483 1485 1486 1487 1489 1491 1492 1493 1494 1495 1495 1496 1496 1497 1497 1498 1498
1450 1450 1451 1451 1452 1452 1453 1453 1454 1455 1456 1458 1459 1461 1462 1463 1465 1466 1467 1469 1471 1472 1473 1475 1477 1478 1479 1481 1482 1484 1485 1486 1488 1489 1490 1491 1492 1492 1493 1493 1493 1494 1494
1450 1450 1450 1450 1451 1451 1451 1452 1453 1454 1455 1456 1457 1459 1460 1462 1463 1464 1464 1466 1467 1469 1470 1472 1473 1474 1475 1477 1478 1480 1481 1482 1483 1485 1486 1486 1487 1488 1489 1489 1489 1490 1490
1450 1449 1449 1449 1449 1450 1450 1451 1451 1452 1453 1454 1455 1457 1458 1459 1460 1461 1462 1464 1464 1465 1467 1468 1469 1470 1471 1473 1474 1475 1477 1478 1479 1480 1481 1482 1483 1483 1484 1485 1485 1485 1486
1448 1448 1448 1448 1448 1449 1449 1449 1450 1451 1452 1453 1453 1454 1456 1457 1457 1458 1459 1460 1461 1462 1463 1464 1465 1466 1467 1468 1470 1471 1472 1473 1474 1476 1477 1477 1478 1479 1480 1480 1481 1481 1482
1446 1446 1446 1446 1446 1447 1447 1448 1448 1449 1450 1450 1451 1452 1453 1453 1454 1455 1456 1457 1458 1459 1460 1460 1461 1462 1463 1464 1465 1466 1467 1468 1470 1471 1472 1473 1474 1475 1476 1476 1477 1477 1478
1444 1444 1444 1444 1445 1445 1445 1446 1446 1447 1447 1448 1448 1449 1450 1451 1451 1452 1453 1454 1455 1456 1456 1457 1457 1458 1459 1460 1461 1462 1463 1464 1465 1466 1467 1468 1469 1470 1471 1472 1473 1474 1474
1441 1441 1442 1442 1442 1443 1443 1443 1444 1444 1445 1445 1446 1446 1447 1448 1449 1449 1450 1451 1451 1452 1453 1453 1454 1454 1455 1456 1457 1458 1459 1460 1461 1462 1463 1464 1465 1466 1467 1468 1469 1469 1470
1439 1439 1439 1439 1440 1440 1440 1441 1441 1442 1442 1443 1443 1443 1444 1445 1445 1446 1447 1447 1448 1448 1449 1449 1450 1451 1452 1453 1454 1454 1455 1456 1457 1458 1459 1460 1461 1462 1463 1464 1464 1465 1466
1436 1436 1436 1436 1437 1437 1437 1438 1438 1438 1439 1439 1440 1440 1441 1441 1442 1442 1443 1443 1444 1444 1445 1446 1447 1447 1448 1449 1450 1451 1452 1453 1453 1454 1456 1457 1457 1459 1460 1460 1461 1461 1461
1432 1432 1433 1433 1433 1434 1434 1434 1434 1434 1435 1436 1436 1436 1437 1437 1437 1438 1439 1439 1440 1440 1441 1442 1443 1444 1445 1446 1447 1448 1448 1449 1450 1451 1452 1453 1454 1455 1455 1456 1456 1457 1457
1429 1429 1429 1429 1430 1430 1430 1430 1430 1430 1431 1432 1432 1432 1433 1433 1433 1434 1435 1435 1436 1437 1437 1439 1440 1440 1441 1442 1443 1444 1445 1446 1446 1447 1448 1448 1449 1450 1451 1452 1452 1453 1453
1425 1425 1425 1425 1426 1426 1426 1426 1426 1427 1427 1428 1428 1428 1428 1429 1429 1430 1430 1431 1432 1433 1433 1434 1435 1436 1437 1438 1439 1441 1442 1443 1443 1443 1444 1444 1445 1446 1446 1447 1448 1449 1449
1422 1422 1422 1422 1422 1422 1422 1422 1422 1423 1423 1423 1424 1424 1424 1424 1425 1426 1426 1427 1428 1429 1429 1430 1431 1432 1433 1435 1436 1437 1438 1439 1439 1439 1440 1440 1441 1441 1442 1442 1443 1444 1444
1419 1419 1419 1418 1418 1418 1418 1418 1419 1419 1419 1419 1419 1420 1420 1420 1421 1422 1423 1424 1424 1425 1426 1426 1427 1428 1429 1430 1432 1433 1434 1434 1435 1435 1435 1436 1437 1437 1438 1438 1439 1439 1439
1416 1416 1415 1415 1414 1414 1414 1414 1415 1415 1415 1415 1415 1416 1416 1417 1417 1418 1419 1420 1421 1422 1422 1423 1424 1424 1425 1427 1428 1429 1429 1430 1430 1431 1431 1431 1432 1432 1433 1434 1434 1435 1435
1413 1412 1412 1411 1411 1411 1411 1411 1411 1411 1411 1411 1411 1412 1412 1413 1414 1415 1415 1416 1418 1419 1419 1420 1421 1421 1422 1423 1424 1425 1425 1426 1426 1427 1426 1427 1427 1428 1428 1429 1430 1431 1432